DW6455 Weather Reports


Display with metric or nautical units.
time (UTC)temp
F
wind
direction
speed
MPH
gust
MPH
rain 1hr
in
rain 24hr
in
rain mn
in
humidity
%
barometer
mb
20260905101520 59 315 3.0 9.0 0.00 0.01 0.01 71 994.9
20260905100520 59 270 3.0 9.0 0.00 0.01 0.01 71 994.8
20260905095520 59 293 3.0 7.0 0.00 0.01 0.01 70 994.8
20260905094520 58 315 2.0 11.0 0.00 0.01 0.01 67 994.7
20260905093520 57 293 1.0 7.0 0.00 0.01 0.01 62 994.7
20260905092520 57 293 1.0 5.0 0.00 0.01 0.01 59 994.7
20260905091520 57 293 1.0 4.0 0.00 0.01 0.01 50 994.6
20260905090520 57 293 1.0 5.0 0.00 0.01 0.01 54 994.6
20260905085521 57 293 3.0 9.0 0.00 0.01 0.01 44 994.4
20260905084520 57 293 2.0 7.0 0.00 0.01 0.01 36 994.5
20260905083520 57 0 2.0 5.0 0.00 0.01 0.01 1 994.4
20260905082520 56 270 1.0 6.0 0.00 0.01 0.01 1 994.4
20260905081520 56 0 1.0 5.0 0.00 0.01 0.01 1 994.3
20260905080520 55 338 1.0 6.0 0.00 0.01 0.01 1 994.3
20260905075520 56 0.0 3.0 0.00 0.01 0.01 1 994.3
20260905074520 56 0.0 3.0 0.00 0.01 0.01 1 994.3
20260905073520 55 0.0 0.0 0.00 0.01 0.01 1 994.3
20260905072540 54 90 1.0 3.0 0.00 0.01 0.01 1 994.2
20260905042520 41 0.0 0.0 0.00 0.01 0.01 1 994.1
20260905041520 41 0.0 0.0 0.00 0.01 0.01 1 994.2
20260905040520 41 0.0 0.0 0.00 0.01 0.01 1 994.1
20260905035521 41 0.0 0.0 0.00 0.01 0.01 1 994.1
20260905034521 41 0.0 0.0 0.00 0.01 0.01 1 994.1
20260905033521 41 0.0 0.0 0.00 0.01 0.01 1 994.2
20260905032520 41 0.0 0.0 0.00 0.01 0.01 1 994.2
20260905031520 41 0.0 0.0 0.00 0.01 0.01 1 994.2
20260905030520 41 0.0 2.0 0.00 0.01 0.01 1 994.2
20260905025520 41 0.0 0.0 0.00 0.01 0.01 1 994.1
20260905024521 41 0.0 0.0 0.00 0.01 0.01 1 994.2
20260905023520 41 0.0 0.0 0.00 0.01 0.01 1 994.3
20260905022520 41 0.0 0.0 0.00 0.01 0.01 1 994.2
20260905021521 41 0.0 0.0 0.00 0.01 0.01 1 994.2
20260905020520 40 0.0 0.0 0.00 0.01 0.01 1 994.2
20260905015520 40 0.0 0.0 0.00 0.01 0.01 1 994.1
20260905014521 40 0.0 0.0 0.01 0.01 0.01 1 994.1
20260905013520 40 0.0 0.0 0.01 0.01 0.01 1 994.1
20260905012520 39 0.0 0.0 0.01 0.01 0.01 1 994.1
20260905011520 39 0.0 0.0 0.01 0.01 0.01 1 994.1
20260905010521 40 0.0 0.0 0.01 0.01 0.01 1 994.0
20260905005521 40 0.0 0.0 0.01 0.01 0.01 1 994.0
20260905004520 40 0.0 3.0 0.00 0.00 0.00 1 994.1
20260905003520 40 0.0 0.0 0.00 0.00 0.00 1 994.1
20260905002540 40 0.0 0.0 0.00 0.00 0.00 1 994.2
20260904232520 41 0.0 0.0 0.00 0.00 0.00 1 994.5
20260904231520 41 0.0 0.0 0.00 0.00 0.00 1 994.6
20260904230520 41 0.0 0.0 0.00 0.00 0.00 1 994.7
20260904225520 42 0.0 0.0 0.00 0.00 0.00 1 994.8
20260904224520 42 0.0 0.0 0.00 0.00 0.00 1 994.8
20260904223520 42 0.0 0.0 0.00 0.00 0.00 1 994.8
20260904222540 42 0.0 0.0 0.00 0.00 0.00 1 994.8
20260904212520 43 0.0 0.0 0.00 0.00 0.00 1 995.2
20260904211520 43 0.0 0.0 0.00 0.00 0.00 1 995.2
20260904210520 43 0.0 0.0 0.00 0.00 0.00 1 995.3
20260904205521 44 0.0 0.0 0.00 0.00 0.00 1 995.3
20260904204521 44 0.0 0.0 0.00 0.00 0.00 1 995.4
20260904203520 44 0.0 0.0 0.00 0.00 0.00 1 995.4
20260904202541 45 0.0 0.0 0.00 0.00 0.00 1 995.5
20260904192520 46 45 1.0 2.0 0.00 0.00 0.00 1 995.8
20260904191520 47 0.0 0.0 0.00 0.00 0.00 1 995.8
20260904190520 47 0.0 0.0 0.00 0.00 0.00 1 995.9
20260904185520 47 0.0 0.0 0.00 0.00 0.00 1 995.9
20260904184521 48 0.0 0.0 0.00 0.00 0.00 1 996.0
20260904183520 48 0.0 0.0 0.00 0.00 0.00 1 996.1
20260904182540 49 0.0 0.0 0.00 0.00 0.00 1 996.1
20260904152521 54 0.0 0.0 0.00 0.00 0.00 51 996.4
20260904151520 55 0.0 0.0 0.00 0.00 0.00 55 996.5
20260904150521 55 0.0 0.0 0.00 0.00 0.00 52 996.5
20260904145521 55 0.0 0.0 0.00 0.00 0.00 49 996.5
20260904144520 56 0.0 0.0 0.00 0.00 0.00 50 996.6
20260904143521 56 0.0 0.0 0.00 0.00 0.00 53 996.6
20260904142521 56 0.0 0.0 0.00 0.00 0.00 54 996.7
20260904141521 57 0.0 0.0 0.00 0.00 0.00 52 996.8
20260904140521 57 0.0 0.0 0.00 0.00 0.00 53 996.8
20260904135520 58 0.0 2.0 0.00 0.00 0.00 35 996.9
20260904134521 58 0.0 0.0 0.00 0.00 0.00 50 997.0
20260904133520 57 23 1.0 3.0 0.00 0.00 0.00 42 997.1
20260904132520 58 23 2.0 4.0 0.00 0.00 0.00 55 997.2
20260904131520 58 0.0 3.0 0.00 0.00 0.00 66 997.2
20260904130521 59 135 2.0 4.0 0.00 0.00 0.00 68 997.2
20260904125521 58 158 3.0 6.0 0.00 0.00 0.00 65 997.2
20260904124521 58 158 3.0 7.0 0.00 0.00 0.00 64 997.3
20260904123521 57 135 2.0 6.0 0.00 0.00 0.00 42 997.2
20260904122520 57 180 1.0 5.0 0.00 0.00 0.00 30 997.3
20260904121520 56 180 1.0 4.0 0.00 0.00 0.00 31 997.3
20260904120520 56 180 1.0 3.0 0.00 0.00 0.00 11 997.4
20260904115541 56 135 1.0 3.0 0.00 0.00 0.00 1 997.5